TimeCDT,TemperatureF,Dew PointF,Humidity,Sea Level PressureIn,VisibilityMPH,Wind Direction,Wind SpeedMPH,Gust SpeedMPH,PrecipitationIn,Events,Conditions,WindDirDegrees,DateUTC
12:15 AM,76.3,71.8,86,29.99,10.0,SSE,6.9,-,N/A,,Clear,150,2012-10-10 05:15:00
12:55 AM,76.3,72.5,88,29.98,10.0,SSE,6.9,-,N/A,,Clear,150,2012-10-10 05:55:00
1:15 AM,76.5,72.5,87,29.98,10.0,SSE,8.1,-,N/A,,Clear,150,2012-10-10 06:15:00
1:35 AM,76.3,72.7,89,29.98,10.0,SSE,6.9,-,N/A,,Clear,150,2012-10-10 06:35:00
1:55 AM,76.1,72.5,89,29.98,10.0,SSE,5.8,-,N/A,,Clear,160,2012-10-10 06:55:00
2:15 AM,75.6,72.5,90,29.97,10.0,SSE,6.9,-,N/A,,Clear,160,2012-10-10 07:15:00
2:35 AM,75.2,72.5,91,29.96,10.0,SSE,9.2,-,N/A,,Clear,160,2012-10-10 07:35:00
2:55 AM,75.4,72.5,91,29.96,10.0,SSE,8.1,-,N/A,,Clear,160,2012-10-10 07:55:00
3:15 AM,75.6,72.9,91,29.96,10.0,SSE,6.9,-,N/A,,Clear,160,2012-10-10 08:15:00
3:35 AM,75.4,72.9,92,29.96,7.0,SSE,6.9,-,N/A,,Clear,160,2012-10-10 08:35:00
3:55 AM,75.6,73.0,92,29.95,7.0,SSE,6.9,-,N/A,,Clear,150,2012-10-10 08:55:00
4:15 AM,76.1,73.6,92,29.95,7.0,SSE,6.9,-,N/A,,Clear,160,2012-10-10 09:15:00
4:35 AM,76.1,73.6,92,29.95,7.0,SSE,5.8,-,N/A,,Clear,160,2012-10-10 09:35:00
4:55 AM,75.7,73.6,93,29.95,7.0,SSE,6.9,-,N/A,,Clear,160,2012-10-10 09:55:00
5:15 AM,76.1,73.9,93,29.96,7.0,SSE,5.8,-,N/A,,Clear,150,2012-10-10 10:15:00
5:35 AM,75.7,73.8,94,29.97,7.0,SSE,4.6,-,N/A,,Clear,160,2012-10-10 10:35:00
6:15 AM,74.8,73.2,95,29.98,4.0,Calm,Calm,-,N/A,,Clear,0,2012-10-10 11:15:00
6:35 AM,74.7,73.2,95,30.00,3.0,Calm,Calm,-,N/A,,Clear,0,2012-10-10 11:35:00
6:55 AM,74.3,72.7,95,30.00,3.0,NNE,3.5,-,N/A,,Mist,20,2012-10-10 11:55:00
7:15 AM,74.3,72.9,95,30.01,4.0,NNE,3.5,-,N/A,,Clear,30,2012-10-10 12:15:00
7:35 AM,73.4,72.0,95,30.02,1.8,NNE,4.6,-,N/A,,Mist,20,2012-10-10 12:35:00
7:55 AM,74.1,72.7,95,30.02,1.5,NNE,4.6,-,N/A,,Mostly Cloudy,20,2012-10-10 12:55:00
8:15 AM,76.1,74.7,95,30.03,4.0,NNE,4.6,-,N/A,,Scattered Clouds,30,2012-10-10 13:15:00
8:35 AM,77.0,75.2,94,30.04,5.0,NE,6.9,-,N/A,,Mostly Cloudy,50,2012-10-10 13:35:00
8:55 AM,78.3,76.1,93,30.05,7.0,ENE,4.6,-,N/A,,Scattered Clouds,60,2012-10-10 13:55:00
9:15 AM,80.8,76.5,87,30.06,10.0,East,4.6,-,N/A,,Scattered Clouds,80,2012-10-10 14:15:00
9:35 AM,82.0,76.5,83,30.06,10.0,East,3.5,-,N/A,,Scattered Clouds,100,2012-10-10 14:35:00
9:55 AM,83.3,75.9,78,30.06,10.0,South,4.6,-,N/A,,Scattered Clouds,170,2012-10-10 14:55:00
10:15 AM,84.6,74.8,72,30.07,10.0,South,6.9,-,N/A,,Scattered Clouds,180,2012-10-10 15:15:00
10:35 AM,86.4,73.4,65,30.07,10.0,SSE,6.9,-,N/A,,Scattered Clouds,160,2012-10-10 15:35:00
10:55 AM,86.4,72.9,64,30.07,10.0,SSE,6.9,-,N/A,,Clear,150,2012-10-10 15:55:00
11:15 AM,87.8,72.0,59,30.07,10.0,SSE,5.8,-,N/A,,Scattered Clouds,150,2012-10-10 16:15:00
11:35 AM,88.0,72.1,59,30.06,10.0,South,5.8,-,N/A,,Scattered Clouds,190,2012-10-10 16:35:00
11:55 AM,88.9,71.8,57,30.06,10.0,SSW,3.5,-,N/A,,Mostly Cloudy,210,2012-10-10 16:55:00
12:15 PM,90.3,71.2,53,30.05,10.0,SE,6.9,-,N/A,,Mostly Cloudy,130,2012-10-10 17:15:00
12:35 PM,90.5,72.1,55,30.04,10.0,East,9.2,-,N/A,,Mostly Cloudy,100,2012-10-10 17:35:00
12:55 PM,90.9,71.8,53,30.03,10.0,East,10.4,-,N/A,,Mostly Cloudy,90,2012-10-10 17:55:00
1:15 PM,90.5,71.4,53,30.02,10.0,East,9.2,-,N/A,,Scattered Clouds,100,2012-10-10 18:15:00
1:35 PM,90.3,72.7,56,30.01,10.0,East,9.2,-,N/A,,Mostly Cloudy,90,2012-10-10 18:35:00
1:55 PM,91.8,72.5,53,30.00,10.0,ESE,11.5,18.4,N/A,,Overcast,110,2012-10-10 18:55:00
2:15 PM,91.2,72.7,54,29.99,10.0,East,13.8,18.4,N/A,,Mostly Cloudy,90,2012-10-10 19:15:00
2:35 PM,89.6,72.7,57,29.97,10.0,East,12.7,-,N/A,,Overcast,80,2012-10-10 19:35:00
2:55 PM,89.2,72.7,58,29.97,10.0,NE,11.5,-,N/A,Thunderstorm,Overcast,50,2012-10-10 19:55:00
3:15 PM,92.7,73.4,53,29.97,10.0,East,11.5,-,N/A,,Overcast,100,2012-10-10 20:15:00
3:35 PM,93.6,71.8,49,29.97,10.0,SE,9.2,12.7,N/A,,Mostly Cloudy,140,2012-10-10 20:35:00
3:55 PM,92.8,72.0,50,29.97,10.0,ESE,15.0,-,N/A,,Scattered Clouds,120,2012-10-10 20:55:00
4:15 PM,91.9,71.6,51,29.97,10.0,SE,16.1,-,N/A,,Scattered Clouds,130,2012-10-10 21:15:00
4:35 PM,92.8,72.0,50,29.97,10.0,ESE,17.3,25.3,N/A,,Scattered Clouds,110,2012-10-10 21:35:00
4:55 PM,90.5,73.6,57,29.96,10.0,East,19.6,25.3,N/A,,Scattered Clouds,100,2012-10-10 21:55:00
5:15 PM,90.3,73.8,58,29.97,10.0,ESE,20.7,24.2,N/A,,Scattered Clouds,110,2012-10-10 22:15:00
5:35 PM,87.6,74.3,64,29.97,10.0,East,18.4,24.2,N/A,,Scattered Clouds,100,2012-10-10 22:35:00
5:55 PM,85.8,75.0,70,29.97,10.0,East,20.7,26.5,N/A,,Scattered Clouds,90,2012-10-10 22:55:00
6:15 PM,83.8,74.7,74,29.98,10.0,East,19.6,23.0,N/A,,Scattered Clouds,90,2012-10-10 23:15:00
6:35 PM,82.8,74.3,75,30.00,10.0,East,17.3,-,N/A,,Clear,100,2012-10-10 23:35:00
6:55 PM,81.9,73.8,76,30.01,10.0,East,15.0,-,N/A,,Scattered Clouds,100,2012-10-10 23:55:00
7:15 PM,81.3,74.3,79,30.00,10.0,East,15.0,20.7,N/A,,Scattered Clouds,100,2012-10-11 00:15:00
7:35 PM,81.5,73.4,76,30.02,10.0,ESE,13.8,-,N/A,,Clear,110,2012-10-11 00:35:00
7:55 PM,81.3,72.3,74,30.03,10.0,ESE,11.5,18.4,N/A,,Clear,110,2012-10-11 00:55:00
8:15 PM,81.0,72.0,74,30.03,10.0,ESE,10.4,-,N/A,,Clear,110,2012-10-11 01:15:00
8:35 PM,81.0,72.5,75,30.03,10.0,East,10.4,-,N/A,,Scattered Clouds,100,2012-10-11 01:35:00
8:55 PM,81.1,72.7,75,30.04,10.0,ESE,10.4,-,N/A,,Clear,120,2012-10-11 01:55:00
9:15 PM,81.0,71.8,74,30.05,10.0,East,10.4,-,N/A,,Clear,100,2012-10-11 02:15:00
9:55 PM,81.1,73.4,77,30.05,10.0,ESE,11.5,-,N/A,,Mostly Cloudy,110,2012-10-11 02:55:00
10:15 PM,80.8,74.3,81,30.05,10.0,ESE,11.5,-,N/A,,Scattered Clouds,110,2012-10-11 03:15:00
10:35 PM,80.8,75.4,84,30.05,10.0,ESE,10.4,-,N/A,,Clear,110,2012-10-11 03:35:00
10:55 PM,81.0,75.7,84,30.05,10.0,ESE,11.5,-,N/A,,Clear,120,2012-10-11 03:55:00
11:15 PM,81.0,76.1,85,30.05,10.0,SE,9.2,-,N/A,,Scattered Clouds,130,2012-10-11 04:15:00
11:35 PM,80.8,76.1,86,30.05,10.0,SE,10.4,-,N/A,,Scattered Clouds,140,2012-10-11 04:35:00
11:55 PM,80.8,75.4,84,30.04,10.0,SE,11.5,-,N/A,,Clear,140,2012-10-11 04:55:00